Voltar ao catálogo

STARLINK-32930

AtivoComunicaçõesVLEO
NORAD 63203·PAYLOAD·🇺🇸 United States

Lançado Mar 13, 2025 de Cape Canaveral Space Force Station

Loading…

Próximas Passagens (próximas 24 horas)

TLE

AtualizadoSource: CelesTrak SupGP

Época: Sep 14, 2026, 20:49 UTC

1 63203C 25048W   26257.86784722  .00000551  00000+0  19956-4 0  2570
2 63203  43.0028  97.2057 0001362 272.9410   6.3963 15.27571660    18

Acompanhe STARLINK-32930 em tempo real com AllMySat

Download on the App Store